Lid_Strength_Index
4 4 4 4 4 4 4 4 5 5 4 4 3 2 2 2 2 2 2 2 3 3 3 3 3 3 3 5 5 -0 -2 -1 3 3 4 4 5 6 7 6 6 7 6 5 5 5 5
4 4 3 3 4 4 4 4 4 5 5 4 4 3 2 2 2 1 2 2 3 3 3 3 3 2 5 8 1 0 2 2 3 3 3 4 5 5 6 6 6 6 6 6 5 6 5
3 3 3 3 3 3 4 5 5 4 4 5 4 5 3 3 2 2 1 2 2 3 3 3 2 3 4 5 3 0 1 2 1 2 4 4 3 4 5 6 4 5 7 7 6 6 6
2 2 3 2 2 3 3 5 5 4 4 4 4 5 5 4 3 3 2 2 2 2 2 2 1 2 5 1 1 3 1 1 1 2 3 2 2 4 5 4 5 7 7 9 6 6 6
2 2 2 2 2 2 3 3 4 4 4 4 4 5 5 5 5 4 3 3 2 2 2 2 2 3 5 1 3 3 0 2 3 2 2 2 3 5 5 7 8 7 10 9 8 5 6
2 2 2 2 2 2 2 3 4 4 4 4 3 4 5 5 5 5 5 4 2 3 3 1 2 4 3 4 2 4 1 1 3 3 4 4 5 7 7 8 11 10 9 8 8 6 6
2 2 2 2 2 2 2 3 3 3 3 3 3 3 5 5 5 5 6 5 5 5 4 5 5 5 3 2 2 4 3 2 3 4 7 5 7 9 7 6 7 7 8 9 7 6 7
2 1 1 2 2 2 2 3 3 3 3 3 3 4 4 5 5 5 5 6 5 4 8 5 5 4 3 3 5 5 3 4 5 7 6 7 8 6 6 6 7 7 8 9 7 6 7
2 1 1 1 2 2 2 2 2 2 2 2 3 3 3 4 4 5 5 4 2 3 7 6 5 5 6 5 6 5 4 5 6 7 7 8 7 5 6 7 8 8 9 9 9 7 6
2 1 1 1 2 2 2 2 2 2 2 2 2 3 3 4 4 1 2 2 1 3 9 7 6 5 4 6 9 5 4 5 7 8 7 7 6 6 7 8 7 9 7 7 8 9 11
2 1 1 2 2 2 2 2 2 2 2 2 2 2 3 4 4 3 1 1 2 3 17 7 6 2 4 7 7 8 5 7 8 8 7 9 8 8 8 8 7 8 6 7 8 9 9
2 1 1 2 2 2 2 2 2 2 2 2 2 2 4 2 3 2 0 1 3 10 16 8 6 6 7 7 7 6 6 6 7 9 9 9 6 7 8 7 7 6 7 8 8 9 13
2 1 1 1 2 2 2 3 2 2 2 2 2 2 5 2 3 0 1 3 10 14 7 9 8 6 7 8 7 7 8 9 10 12 12 10 9 8 7 9 7 7 9 14 14 14 14
2 1 1 1 1 1 2 2 2 3 3 3 3 4 2 2 0 1 2 7 14 10 9 6 7 7 8 7 7 7 7 9 7 8 10 11 13 8 7 9 10 9 9 13 17 16 14
2 1 1 1 1 1 2 3 3 3 3 3 5 1 1 -0 -0 1 5 11 12 9 7 8 7 9 9 8 7 8 8 8 7 7 11 12 11 6 6 6 6 9 11 8 12 11 15
2 1 1 1 1 1 1 2 2 2 3 4 5 2 2 -1 -1 2 7 11 8 6 6 6 10 8 11 10 10 9 10 8 8 6 6 9 12 8 7 6 6 8 8 12 12 19 19
2 1 1 1 1 1 1 1 2 2 3 5 3 5 1 -1 -0 5 10 8 7 5 5 7 9 9 9 10 9 10 10 8 7 7 6 8 10 11 8 9 10 9 10 10 10 13 19
2 2 1 1 1 1 1 1 1 2 4 4 3 8 1 -0 7 7 9 7 8 6 5 6 6 7 8 9 10 10 10 8 6 6 9 8 11 14 11 7 7 8 10 10 16 17 14
2 2 1 1 1 1 1 1 1 2 3 4 5 4 1 1 10 10 7 7 6 7 7 7 7 7 7 9 11 9 9 6 6 7 9 8 12 15 13 10 8 10 9 9 11 13 16
2 2 2 1 1 1 1 1 1 1 2 3 5 8 4 3 4 7 8 8 8 5 6 6 7 6 8 9 8 10 9 7 6 6 7 7 10 14 17 13 11 13 11 10 11 16 15
2 2 2 2 1 1 1 1 1 1 2 3 4 6 5 8 7 7 6 7 8 8 6 6 7 7 8 10 9 10 8 7 7 7 7 8 14 12 11 10 10 10 10 10 12 11 14
2 2 2 2 2 1 1 1 1 1 2 3 6 6 5 6 6 6 7 7 8 7 7 8 8 7 7 10 9 11 9 9 9 7 9 8 14 12 13 10 10 11 10 9 9 9 10
2 2 2 2 2 2 2 2 1 1 2 3 2 2 5 6 6 7 7 7 8 7 6 6 7 7 8 7 6 6 5 6 7 9 10 11 13 13 15 10 11 15 11 10 9 8 9
2 2 2 2 2 2 2 2 1 1 1 1 2 3 6 9 7 7 7 7 7 7 8 6 6 7 5 3 4 5 5 6 6 7 7 11 12 13 15 13 19 10 7 7 8 8 7
2 2 2 2 2 2 1 2 2 1 0 1 1 4 6 9 7 6 6 7 7 6 7 6 6 4 3 5 8 10 9 9 9 7 8 8 11 15 17 16 12 10 8 9 10 10 8
2 2 3 3 3 2 1 2 2 1 1 1 1 0 4 8 7 6 7 7 8 8 7 7 4 4 5 7 10 13 13 11 12 11 8 9 9 14 15 18 19 12 8 6 7 13 7
2 3 3 3 3 2 2 2 2 2 2 2 1 -1 3 7 6 6 7 7 6 7 8 7 6 6 5 9 12 13 12 9 13 15 14 13 13 15 16 17 13 7 7 6 14 13 7
3 3 3 3 2 2 2 2 2 2 2 2 3 1 3 6 6 5 5 6 6 7 9 7 7 7 8 11 11 11 12 10 11 10 12 13 15 15 14 16 17 7 7 11 9 6 6
3 3 2 2 2 3 3 2 2 3 2 2 4 1 3 5 6 3 3 2 3 4 6 6 6 7 7 9 9 9 11 10 11 15 8 14 10 13 13 13 7 6 7 5 5 6 5